Date,TemperatureHighF,TemperatureAvgF,TemperatureLowF,DewpointHighF,DewpointAvgF,DewpointLowF,HumidityHigh,HumidityAvg,HumidityLow,PressureMaxIn,PressureMinIn,WindSpeedMaxMPH,WindSpeedAvgMPH,GustSpeedMaxMPH,PrecipitationSumIn
2013-1-1,78.4,71.2,62.9,63.0,61.0,59.0,89,71,59,30.23,30.09,13,4,25,0.00
2013-3-24,86.9,78.6,70.8,72.0,70.2,66.0,97,77,59,29.81,29.71,19,5,24,0.40
2013-3-25,76.6,72.0,64.0,73.0,59.6,39.0,98,69,34,30.02,29.78,11,3,14,0.40
2013-3-26,64.8,59.2,52.3,44.0,38.4,32.0,65,47,31,30.25,30.02,16,6,22,0.00
2013-3-27,67.1,55.8,46.2,49.0,41.5,33.0,80,60,35,30.29,30.21,12,4,15,0.00
2013-3-28,70.6,59.7,48.6,51.0,46.0,38.0,85,63,32,30.31,30.21,13,3,15,0.00
2013-3-29,73.9,65.2,54.0,55.0,51.5,48.0,83,63,45,30.33,30.24,14,3,19,0.00
2013-3-30,75.9,66.4,55.5,59.0,54.2,50.0,96,67,41,30.30,30.20,9,2,17,0.00
2013-3-31,79.7,69.8,58.5,67.0,61.8,56.0,95,77,57,30.22,30.08,14,4,18,0.00
2013-4-1,86.0,76.2,68.1,72.0,66.2,61.0,96,74,45,30.09,29.97,15,3,18,0.00
2013-4-2,82.9,72.6,66.0,69.0,64.4,-99.9,98,79,56,30.11,30.02,10,-8,13,0.00
2013-4-3,82.9,76.7,69.9,70.0,68.8,67.0,91,77,62,30.10,30.03,11,5,19,0.00
2013-4-4,83.8,74.4,68.4,73.0,70.1,67.0,96,86,69,30.09,29.94,11,4,23,0.42
2013-4-5,71.3,68.1,66.0,70.0,66.2,63.0,97,93,86,30.04,29.86,11,3,18,0.11
2013-4-6,77.1,68.4,58.2,65.0,61.5,57.0,95,80,60,30.12,29.95,16,5,18,0.01
2013-4-7,78.2,73.6,68.8,65.0,63.0,61.0,79,70,60,30.18,30.06,12,4,18,0.01
2013-4-8,81.6,71.0,61.6,66.0,63.3,61.0,97,78,51,30.16,30.08,11,2,14,0.00
2013-4-9,80.4,75.1,70.5,69.0,67.3,66.0,86,77,65,30.19,30.09,13,4,19,0.00
2013-4-10,84.6,77.6,72.2,73.0,70.7,68.0,87,80,64,30.14,30.03,16,5,19,0.00
2013-4-11,83.1,78.0,74.9,74.0,72.2,71.0,89,82,71,30.05,29.93,19,8,24,0.00
2013-4-12,85.9,79.4,74.7,78.0,74.7,72.0,95,86,72,29.98,29.89,18,6,25,0.48
2013-4-13,84.9,76.2,71.9,76.0,72.8,68.0,97,89,73,30.00,29.91,9,2,16,0.61
2013-4-14,86.4,79.1,72.1,76.0,73.8,70.0,98,85,67,30.00,29.93,14,4,19,0.61
2013-4-15,90.7,77.3,69.9,77.0,72.5,68.0,98,86,60,30.09,29.97,14,3,22,1.13
2013-4-16,85.1,77.2,71.1,77.0,72.7,70.0,98,86,71,30.16,30.06,11,3,17,0.01
2013-4-17,83.3,77.5,72.2,71.0,68.4,64.0,90,74,54,30.15,30.06,10,3,14,0.01
2013-4-18,85.7,79.4,73.9,74.0,71.6,67.0,88,77,64,30.10,30.01,15,4,18,0.00
2013-4-19,86.4,80.8,76.3,74.0,73.0,71.0,90,77,60,30.08,30.00,21,7,23,0.01
2013-4-20,89.9,77.5,72.3,77.0,72.7,70.0,96,86,56,30.12,30.01,14,4,20,0.01
2013-4-21,84.8,77.5,71.1,75.0,72.1,70.0,97,84,67,30.13,30.02,11,3,17,0.00
2013-4-22,83.6,75.4,71.6,73.0,70.2,68.0,94,84,65,30.08,29.97,14,3,19,0.00
2013-4-23,82.4,74.8,67.3,69.0,66.3,61.0,97,76,58,30.12,29.99,19,5,21,0.00
2013-4-24,83.4,76.5,68.1,66.0,64.4,61.0,89,67,55,30.17,30.07,12,3,16,0.00
2013-4-25,82.6,76.0,69.3,66.0,63.3,61.0,85,66,52,30.24,30.11,11,3,18,0.00
2013-4-26,82.9,75.2,66.0,67.0,65.2,62.0,93,72,57,30.26,30.15,13,3,19,0.00
2013-4-27,81.8,76.8,71.7,68.0,65.0,62.0,77,67,53,30.25,30.12,14,5,22,0.00
2013-4-28,83.0,77.0,72.4,66.0,64.4,61.0,77,66,49,30.16,30.03,15,5,18,0.00
2013-4-29,84.3,77.5,71.7,72.0,68.5,64.0,84,74,58,30.07,29.97,15,4,17,0.00
2013-4-30,82.1,74.5,69.4,74.0,70.9,68.0,98,89,70,30.03,29.96,10,2,18,2.00
2013-5-1,85.2,74.0,69.3,74.0,70.5,68.0,99,90,66,30.03,29.96,10,2,17,0.32
2013-5-2,77.8,71.8,68.8,73.0,70.3,68.0,98,95,83,29.99,29.84,15,3,19,2.41
2013-5-3,87.8,73.4,68.1,72.0,67.9,-99.9,98,86,58,29.86,29.71,7,-8,18,0.54
2013-5-4,84.8,75.3,68.3,71.0,69.0,67.0,99,82,57,29.83,29.72,9,2,14,0.55
2013-5-5,79.7,72.8,67.8,68.0,62.8,54.0,96,73,42,29.96,29.79,11,3,15,0.00
2013-5-6,81.5,71.8,60.3,68.0,61.8,54.0,95,72,56,30.04,29.95,7,1,10,0.00
2013-5-7,81.6,71.8,61.6,64.0,60.3,56.0,84,69,48,30.09,30.01,7,3,13,0.00
2013-5-8,84.4,73.1,60.8,67.0,61.6,57.0,96,70,41,30.17,30.07,7,1,13,0.00
2013-5-9,87.8,77.1,66.8,74.0,68.2,62.0,88,75,53,30.17,30.09,11,2,14,0.00
2013-5-10,88.8,80.7,73.8,75.0,72.7,69.0,93,78,54,30.17,30.05,11,3,17,0.00
2013-5-11,88.2,78.0,72.4,77.0,71.9,-99.9,98,84,64,30.11,30.00,15,-7,20,0.40
2013-5-12,88.6,76.2,71.3,76.0,70.5,-99.9,98,86,59,30.09,29.97,10,-8,14,0.70
2013-5-13,85.1,76.0,71.0,73.0,67.7,-99.9,98,79,57,30.12,30.02,7,-8,13,0.71
2013-5-14,81.3,75.3,70.1,68.0,61.3,57.0,86,63,48,30.21,30.10,14,4,17,0.00
2013-5-15,82.7,75.7,67.3,67.0,62.3,56.0,82,64,50,30.23,30.13,10,3,16,0.00
2013-5-16,83.5,76.0,65.1,67.0,63.9,61.0,93,67,53,30.15,30.08,10,2,13,0.00
2013-5-17,84.2,76.4,69.5,74.0,70.6,65.0,94,82,70,30.12,30.05,10,3,18,0.40
2013-5-18,86.9,78.6,72.0,77.0,72.5,70.0,96,82,66,30.14,30.07,11,3,18,0.41
2013-5-19,87.1,79.7,72.0,72.0,70.9,69.0,94,75,57,30.14,30.04,11,2,14,0.41
2013-5-20,79.7,75.6,67.2,74.0,72.2,66.0,97,89,81,30.13,30.02,18,2,20,2.19
2013-5-21,84.5,75.7,69.0,75.0,71.5,68.0,98,87,68,30.09,29.97,10,3,18,0.24
2013-5-22,84.6,77.9,73.7,75.0,72.4,69.0,96,84,68,30.01,29.93,10,2,16,0.25
2013-5-23,90.0,80.5,73.5,76.0,73.1,66.0,98,80,48,30.04,29.94,10,3,13,0.00
2013-5-24,90.4,82.4,74.9,77.0,72.8,63.0,97,75,41,30.10,29.98,11,2,17,0.00
2013-5-25,84.7,79.5,74.9,75.0,69.3,65.0,96,72,55,30.20,30.08,13,4,20,0.09
2013-5-26,84.5,78.0,69.5,70.0,66.0,62.0,88,67,54,30.21,30.14,14,4,18,0.00
2013-5-27,83.8,78.8,74.1,73.0,70.1,64.0,91,75,66,30.20,30.11,16,5,24,0.09
2013-5-28,82.9,78.4,74.8,75.0,73.1,72.0,92,83,70,30.16,30.08,16,6,22,0.02
2013-5-29,81.1,75.7,70.7,75.0,72.4,70.0,98,90,75,30.13,30.06,15,5,23,0.61
2013-5-30,81.6,77.5,73.1,75.0,72.6,69.0,95,85,73,30.11,30.04,19,7,28,0.53
2013-5-31,83.9,78.1,74.5,76.0,73.9,72.0,96,87,75,30.10,30.04,13,6,26,0.20
2013-6-1,84.3,77.7,73.9,77.0,74.9,73.0,98,91,77,30.07,30.00,13,2,15,0.24
2013-6-2,90.3,79.3,72.3,77.0,74.3,72.0,99,86,64,30.04,29.96,8,2,18,0.02
2013-6-3,85.1,77.3,73.4,78.0,74.5,73.0,98,91,72,30.07,29.95,7,1,12,0.70
2013-6-4,85.2,78.1,74.2,78.0,75.0,73.0,99,90,72,30.09,29.99,5,1,9,0.07
2013-6-5,83.7,80.6,78.4,78.0,76.6,75.0,92,88,80,30.05,29.93,10,3,13,0.04
2013-6-6,87.0,79.2,73.4,80.0,76.0,72.0,98,90,75,29.94,29.80,18,6,28,0.92
2013-6-7,87.5,77.1,72.9,78.0,74.3,72.0,98,91,71,30.02,29.87,14,3,18,0.68
2013-6-8,85.1,76.2,73.7,79.0,72.2,-99.9,99,91,80,30.16,30.00,9,-19,16,0.96
2013-6-9,88.2,80.5,74.1,79.0,73.7,-99.9,98,82,66,30.16,30.07,14,-6,16,0.01
2013-6-10,89.5,83.8,79.1,78.0,76.8,75.0,90,80,67,30.13,30.04,9,4,16,0.01
2013-6-11,88.8,82.5,78.7,79.0,77.1,75.0,93,84,64,30.12,30.04,7,2,15,0.00
2013-6-12,85.4,79.3,75.9,78.0,76.2,74.0,97,90,71,30.11,30.06,5,1,12,0.07
2013-6-13,87.8,80.0,75.1,78.0,75.4,72.0,99,86,67,30.08,29.97,5,1,12,0.06
2013-6-14,90.0,80.5,74.6,77.0,74.2,72.0,98,82,58,30.00,29.91,9,2,18,0.04
2013-6-15,93.3,82.1,74.7,77.0,75.1,72.0,98,81,58,30.09,29.95,7,1,14,0.04
2013-6-16,92.8,84.1,75.9,78.0,76.2,74.0,96,78,54,30.13,30.05,9,2,14,0.00
2013-6-17,92.2,84.6,77.7,78.0,76.6,75.0,95,78,58,30.11,30.04,10,3,17,0.00
2013-6-18,92.1,84.5,77.5,78.0,76.4,74.0,97,78,57,30.10,30.02,10,3,18,0.00
2013-6-19,91.7,83.6,78.1,79.0,76.5,74.0,94,80,61,30.08,30.02,11,3,16,0.04
2013-6-20,92.9,82.1,75.2,77.0,74.0,70.0,93,77,54,30.12,30.06,10,2,17,0.04
2013-6-21,91.6,83.1,75.9,77.0,75.0,73.0,97,78,57,30.14,30.07,14,2,14,0.00
2013-6-22,91.1,84.1,76.3,76.0,74.5,72.0,94,74,55,30.14,30.07,11,3,16,0.00
2013-6-23,89.7,83.0,79.0,78.0,75.0,73.0,90,77,61,30.16,30.09,11,4,19,0.13
2013-6-24,90.3,84.4,79.9,76.0,74.5,73.0,82,72,57,30.20,30.12,13,4,15,0.00
2013-6-25,90.4,83.7,79.6,78.0,75.8,73.0,87,77,64,30.17,30.08,13,4,19,0.00
2013-6-26,90.8,83.9,80.4,77.0,75.6,74.0,88,76,59,30.11,30.04,11,4,18,0.00
2013-6-27,88.5,81.3,76.7,79.0,75.8,69.0,96,83,69,30.10,29.99,10,1,12,0.00
2013-6-28,92.0,80.7,73.1,81.0,75.1,71.0,98,85,56,30.03,29.89,9,2,14,1.96
2013-6-29,91.4,79.5,73.8,78.0,75.2,73.0,99,88,59,29.95,29.84,11,2,23,0.85
2013-6-30,89.3,78.3,73.5,79.0,75.1,72.0,98,90,65,29.98,29.88,11,2,23,0.93
2013-7-1,88.8,80.6,75.4,78.0,76.1,73.0,98,87,67,30.07,29.95,17,4,24,0.08
2013-7-2,87.9,82.3,76.6,79.0,77.0,73.0,96,84,71,30.14,30.01,16,3,21,0.08
2013-7-3,88.6,81.6,77.2,79.0,76.4,74.0,94,84,70,30.16,30.09,20,5,24,0.41
2013-7-4,88.6,83.4,77.8,79.0,76.6,75.0,92,80,68,30.19,30.11,14,5,24,0.42
2013-7-5,86.3,80.6,75.0,79.0,75.8,72.0,96,85,74,30.18,30.09,13,4,23,0.76
2013-7-6,88.6,83.2,79.5,77.0,75.4,74.0,85,78,64,30.16,30.07,14,5,21,0.76
2013-7-7,89.0,83.9,79.3,77.0,75.7,74.0,88,77,64,30.14,30.06,12,4,21,0.00
2013-7-8,89.7,82.1,77.6,76.0,72.4,-99.9,91,75,60,30.18,30.11,9,-10,16,0.00
2013-7-9,86.3,80.4,72.5,76.0,74.1,70.0,94,81,65,30.19,30.08,10,2,22,0.54
2013-7-10,87.3,79.2,71.6,76.0,74.1,70.0,97,85,67,30.12,30.03,8,2,15,0.76
2013-7-11,91.6,81.4,76.2,78.0,75.5,71.0,97,83,57,30.08,29.98,13,2,15,0.02
2013-7-12,90.9,79.4,74.8,78.0,75.1,73.0,98,88,59,30.00,29.93,11,1,15,0.10
2013-7-13,86.7,75.6,72.8,78.0,73.8,72.0,98,94,73,30.06,29.95,10,1,19,1.03
2013-7-14,89.8,77.8,72.6,77.0,73.8,72.0,98,88,61,30.13,30.02,11,2,16,0.10
2013-7-15,89.3,79.6,73.2,77.0,74.0,72.0,98,84,63,30.13,30.05,10,2,14,0.25
2013-7-16,84.1,76.3,73.0,76.0,71.4,-99.9,98,87,71,30.20,30.09,15,-8,28,1.12
2013-7-17,81.5,78.1,74.9,76.0,74.2,73.0,95,88,78,30.18,30.09,9,2,15,0.02
2013-7-18,87.8,76.9,71.9,77.0,72.3,-99.9,98,88,68,30.16,30.10,15,-8,15,0.36
2013-7-19,88.9,80.6,73.5,79.0,76.1,73.0,98,87,67,30.16,30.08,11,3,18,0.37
2013-7-20,86.5,81.9,76.3,79.0,77.4,73.0,96,86,75,30.15,30.07,13,3,19,0.01
2013-7-21,90.1,80.2,75.9,81.0,76.5,73.0,97,89,69,30.20,30.08,10,2,17,0.26
2013-7-22,92.2,82.8,76.0,79.0,76.2,74.0,98,81,58,30.18,30.10,9,2,13,0.27
2013-7-23,95.2,83.9,77.4,79.0,75.9,70.0,95,78,47,30.14,30.00,7,2,13,0.02
2013-7-24,91.8,83.6,76.5,78.0,74.4,66.0,96,76,44,30.05,29.94,10,2,12,0.05
2013-7-25,91.3,83.2,75.8,78.0,75.8,74.0,94,79,61,30.05,29.95,10,2,13,0.00
2013-7-26,89.2,81.2,78.3,78.0,74.4,-99.9,91,82,64,30.06,29.96,8,-9,15,0.01
2013-7-27,91.7,78.8,74.7,80.0,76.0,73.0,98,91,65,30.04,29.97,8,1,28,3.45
2013-7-28,86.1,78.7,72.2,79.0,75.9,71.0,98,91,77,30.10,29.98,9,1,19,0.04
2013-7-29,90.5,80.8,75.1,79.0,76.2,74.0,98,87,66,30.17,30.06,9,2,12,0.04
2013-7-30,91.5,83.7,76.3,79.0,77.6,75.0,95,82,63,30.20,30.11,10,2,15,0.01
2013-7-31,91.0,84.3,77.8,79.0,76.7,74.0,95,78,58,30.15,30.04,16,3,19,0.00
2013-8-1,90.6,83.8,77.0,77.0,75.2,74.0,92,76,58,30.09,29.98,14,3,18,0.00
2013-8-2,86.5,79.7,75.3,78.0,75.0,73.0,95,86,68,30.08,29.96,11,1,11,0.11
2013-8-3,85.2,77.6,73.3,79.0,75.0,71.0,98,92,79,30.16,30.06,19,1,27,0.20
2013-8-4,93.7,78.7,73.4,79.0,73.7,-99.9,98,88,60,30.14,30.01,12,-10,23,0.22
2013-8-5,91.0,79.9,75.9,81.0,76.4,73.0,98,89,63,30.07,29.99,9,1,16,0.02
2013-8-6,93.3,81.9,75.5,80.0,76.5,74.0,97,85,61,30.01,29.93,10,1,11,0.03
2013-8-7,89.5,83.2,77.0,80.0,76.9,75.0,97,82,65,30.02,29.94,13,3,18,0.02
2013-8-8,91.4,85.2,80.6,79.0,76.9,75.0,87,76,60,30.05,29.97,12,4,19,0.01
2013-8-9,89.7,83.7,80.5,78.0,75.5,72.0,84,76,62,30.11,29.99,15,4,22,0.01
2013-8-10,92.1,85.0,80.1,79.0,77.0,75.0,89,77,64,30.15,30.07,11,4,17,0.00
2013-8-11,91.6,85.4,80.7,79.0,76.9,76.0,86,76,62,30.17,30.10,10,3,14,0.00
2013-8-12,91.0,83.8,76.4,78.0,75.9,74.0,95,78,60,30.14,30.05,10,2,16,0.00
2013-8-13,92.7,84.7,77.3,78.0,76.3,73.0,96,77,53,30.08,29.99,11,2,16,0.00
2013-8-14,92.8,83.9,76.5,78.0,76.0,73.0,96,78,56,30.06,29.97,12,2,15,0.00
2013-8-15,89.9,82.4,76.0,78.0,76.2,73.0,93,82,64,30.09,30.00,11,3,14,0.00
2013-8-16,92.5,83.8,76.0,81.0,77.5,73.0,97,82,62,30.09,30.01,10,2,15,0.53
2013-8-17,91.8,85.8,81.1,80.0,78.6,77.0,91,79,63,30.11,30.04,10,3,18,0.00
2013-8-18,91.3,84.7,79.3,80.0,77.8,76.0,92,80,68,30.12,30.03,10,4,22,0.18
2013-8-19,91.4,85.4,80.7,79.0,77.7,75.0,90,78,61,30.11,30.00,11,4,18,0.00
2013-8-20,91.3,84.6,78.7,79.0,76.6,74.0,95,78,60,30.10,30.02,14,3,17,0.12
2013-8-21,88.7,82.7,76.9,81.0,78.0,75.0,97,86,68,30.11,30.03,16,4,21,0.02
2013-8-22,90.6,85.2,80.7,80.0,77.8,76.0,90,79,64,30.10,30.00,10,3,18,0.04
2013-8-23,91.9,83.9,77.9,79.0,77.1,76.0,95,80,62,30.05,29.97,10,2,16,0.00
2013-8-24,91.0,82.8,77.3,79.0,76.6,74.0,96,82,63,30.14,30.01,10,2,20,0.35
2013-8-25,90.2,81.7,76.3,78.0,75.4,72.0,95,82,63,30.18,30.07,8,3,12,0.35
2013-8-26,89.6,80.1,72.8,78.0,75.3,72.0,98,86,63,30.15,30.05,13,2,18,1.52
2013-8-27,87.0,78.7,74.2,77.0,74.5,73.0,98,87,63,30.09,30.00,7,1,15,0.01
2013-8-28,89.3,80.9,75.5,77.0,75.2,73.0,97,83,64,30.07,29.98,8,1,12,0.39
2013-8-29,91.2,82.3,74.2,78.0,75.8,73.0,97,82,62,30.07,29.96,10,2,14,0.03
2013-8-30,92.8,84.0,76.7,77.0,75.7,71.0,96,77,52,30.04,29.93,11,2,14,0.00
2013-8-31,90.8,81.3,74.6,81.0,74.8,71.0,93,81,59,30.02,29.95,9,2,19,0.07
2013-9-1,91.9,81.1,75.1,78.0,75.6,72.0,98,84,58,30.03,29.96,8,1,13,0.07
2013-9-2,91.6,78.5,72.8,79.0,75.2,71.0,98,90,60,30.07,29.98,11,1,21,2.76
2013-9-3,92.0,80.0,73.6,78.0,73.0,-99.9,99,82,60,30.06,29.97,9,-10,11,0.01
2013-9-4,92.0,83.6,78.3,81.0,77.9,76.0,95,83,63,30.10,29.99,9,1,14,0.03
2013-9-5,91.3,85.0,79.6,79.0,77.8,76.0,93,79,61,30.11,30.03,9,2,13,0.00
2013-9-6,93.0,84.9,78.1,79.0,77.6,75.0,97,80,58,30.07,29.96,13,2,16,0.00
2013-9-7,88.2,79.0,74.7,78.0,75.0,71.0,96,88,70,30.02,29.94,13,2,14,0.08
2013-9-8,85.2,78.8,74.2,78.0,75.2,73.0,97,89,73,29.98,29.90,9,1,19,0.21
2013-9-9,90.1,81.5,73.9,77.0,75.0,72.0,97,81,64,30.04,29.93,12,3,15,0.21
2013-9-10,87.1,81.0,76.6,78.0,75.3,71.0,96,83,68,30.09,29.99,11,3,19,0.02
2013-9-11,84.3,79.3,73.8,77.0,75.2,72.0,96,87,73,30.10,30.01,8,2,14,0.60
2013-9-12,86.5,79.6,76.0,78.0,75.9,74.0,97,89,72,30.05,29.93,5,1,10,0.02
2013-9-13,90.9,81.3,74.2,79.0,76.1,73.0,98,85,66,29.94,29.84,8,1,11,0.06
2013-9-14,93.1,83.6,76.2,78.0,75.7,74.0,97,79,54,30.01,29.86,9,2,15,0.00
2013-9-15,87.4,80.5,73.8,79.0,76.5,72.0,98,88,76,30.10,29.96,11,2,21,1.15
2013-9-16,87.2,79.0,75.1,79.0,76.7,72.0,98,92,74,30.08,30.00,19,3,30,0.04
2013-9-17,79.8,76.9,72.2,77.0,74.9,71.0,99,93,86,30.08,29.96,13,2,22,0.01
2013-9-18,87.0,76.1,73.9,78.0,69.3,-99.9,98,86,73,30.05,29.95,8,-31,14,0.04
2013-9-19,86.4,77.8,73.9,78.0,74.4,72.0,99,90,75,30.04,29.96,9,2,16,0.13
2013-9-20,86.5,80.3,72.6,73.0,71.4,69.0,96,75,57,30.03,29.93,10,3,17,0.13
2013-9-21,89.3,80.5,72.4,75.0,73.0,71.0,95,79,61,29.95,29.82,7,1,11,0.00
2013-9-22,91.2,82.3,74.8,77.0,74.9,74.0,98,80,57,29.90,29.79,12,2,15,0.00
2013-9-23,86.0,80.8,77.2,79.0,76.9,76.0,98,88,73,30.02,29.89,7,1,12,0.31
2013-9-24,87.6,77.8,73.9,81.0,76.1,73.0,99,94,80,30.01,29.91,10,1,16,0.01
2013-9-25,86.4,79.3,73.9,79.0,74.5,72.0,98,86,64,29.94,29.82,10,2,18,0.01
2013-9-26,88.5,79.4,75.4,80.0,76.9,74.0,97,92,75,29.89,29.82,9,2,22,0.48
2013-9-27,85.9,79.5,73.4,77.0,73.7,68.0,98,83,57,29.96,29.85,8,2,14,0.15
2013-9-28,86.9,79.8,74.1,76.0,73.6,70.0,97,82,65,29.99,29.91,10,3,17,0.16
2013-9-29,88.2,80.4,72.0,74.0,71.6,70.0,97,75,58,30.00,29.92,9,2,13,0.00
2013-9-30,89.3,80.4,72.6,74.0,72.4,71.0,98,78,55,30.04,29.94,11,2,13,0.00
2013-10-1,88.1,82.2,76.1,76.0,73.3,72.0,91,75,61,30.07,29.99,11,3,15,0.00
2013-10-2,85.9,82.1,79.3,74.0,73.1,72.0,82,74,66,30.08,30.01,13,4,18,0.00
2013-10-3,87.9,82.2,76.9,75.0,73.6,70.0,86,76,60,30.09,29.99,12,3,14,0.00
2013-10-4,88.5,80.3,74.3,75.0,72.5,70.0,96,78,56,30.09,30.02,8,2,14,0.00
2013-10-5,88.9,80.1,72.4,75.0,72.8,71.0,97,80,60,30.07,29.97,9,2,14,0.00
2013-10-6,89.4,81.2,74.5,76.0,74.3,73.0,97,80,60,30.00,29.90,12,1,12,0.00
2013-10-7,88.3,78.0,72.6,76.0,73.5,71.0,98,87,62,29.93,29.84,12,2,26,0.34
2013-10-8,87.8,80.3,74.8,77.0,74.5,72.0,99,83,64,29.96,29.88,7,2,12,0.34
2013-10-9,82.2,76.7,72.1,76.0,73.4,70.0,96,89,79,30.02,29.93,12,3,16,0.00
2013-10-10,85.3,78.0,70.9,75.0,71.6,70.0,97,81,62,30.04,29.98,10,3,17,0.00
2013-10-11,85.0,77.3,70.1,72.0,69.1,67.0,97,77,59,30.05,29.98,8,2,13,0.00
2013-10-12,85.7,76.8,69.1,71.0,69.1,67.0,98,78,56,30.06,29.98,9,1,12,0.00
2013-10-13,84.8,77.0,72.2,71.0,67.9,64.0,95,75,52,30.09,30.00,10,2,16,0.00
2013-10-14,86.2,77.2,70.6,71.0,69.5,68.0,95,79,55,30.05,29.94,8,2,13,0.00
2013-10-15,85.7,77.1,70.8,73.0,71.3,70.0,96,83,63,29.99,29.90,9,2,12,0.00
2013-10-16,86.1,76.9,71.2,73.0,69.5,-99.9,98,81,59,29.98,29.92,7,-9,12,0.01
2013-10-17,88.0,79.4,71.6,74.0,71.8,70.0,97,79,57,30.00,29.93,6,1,15,0.00
2013-10-18,88.1,79.3,72.0,75.0,73.0,71.0,98,82,64,30.02,29.94,8,1,11,0.00
2013-10-19,90.0,81.7,73.0,76.0,73.7,72.0,97,78,56,29.99,29.91,10,2,16,0.00
2013-10-20,89.2,81.5,75.4,78.0,75.6,74.0,96,83,62,29.99,29.91,9,1,12,0.00
2013-10-21,90.0,82.2,75.0,79.0,76.2,74.0,98,83,68,30.03,29.93,9,2,16,0.00
2013-10-22,89.7,82.2,75.3,78.0,76.1,74.0,97,83,61,30.00,29.86,10,2,17,0.03
2013-10-23,85.4,78.9,74.9,76.0,73.4,69.0,95,83,67,29.99,29.85,12,2,15,0.00
2013-10-24,80.0,75.6,70.4,70.0,65.6,63.0,86,72,62,30.13,29.97,11,4,16,0.00
2013-10-25,80.9,74.2,66.5,66.0,64.6,63.0,88,73,57,30.19,30.11,15,4,20,0.00
2013-10-26,82.7,73.3,66.2,67.0,64.3,62.0,90,75,54,30.18,30.09,14,2,14,0.00
2013-10-27,82.0,72.7,65.2,68.0,64.6,61.0,92,76,59,30.13,30.06,8,2,15,0.00
2013-10-28,84.0,74.2,65.5,69.0,66.1,64.0,97,78,51,30.18,30.09,9,2,12,0.00
2013-10-29,84.5,76.1,67.4,71.0,67.9,64.0,96,77,57,30.21,30.12,16,4,22,0.00
2013-10-30,83.8,78.7,74.2,70.0,67.7,66.0,77,69,59,30.23,30.12,12,5,20,0.00
2013-10-31,85.5,79.7,75.8,74.0,70.8,67.0,86,74,63,30.15,30.03,11,4,19,0.00
2013-11-1,87.6,80.2,72.4,75.0,73.4,71.0,95,80,65,30.04,29.92,13,3,17,0.00
2013-11-2,87.5,78.1,71.0,74.0,70.7,63.0,98,79,52,29.97,29.83,8,2,14,0.00
2013-11-3,78.4,73.2,67.6,66.0,63.2,61.0,87,72,59,30.06,29.93,19,6,24,0.00
2013-11-4,79.2,75.8,69.5,69.0,64.1,59.0,81,67,57,30.12,30.05,17,7,25,0.03
2013-11-5,82.5,78.6,76.4,71.0,69.4,64.0,81,73,66,30.13,30.05,16,8,25,0.01
2013-11-6,83.9,78.2,70.2,70.0,69.1,67.0,94,74,60,30.11,30.03,11,4,23,0.00
2013-11-7,84.3,75.4,70.0,73.0,70.7,68.0,98,86,67,30.05,29.95,10,2,11,0.00
2013-11-8,82.7,74.8,70.5,73.0,70.8,68.0,96,88,66,30.08,29.98,17,5,22,0.59
2013-11-9,78.6,76.3,73.1,72.0,71.4,70.0,95,85,79,30.15,30.05,16,7,22,0.80
2013-11-10,83.2,78.8,76.6,73.0,71.0,69.0,83,77,68,30.16,30.08,10,4,15,0.00
2013-11-11,82.9,76.4,69.4,72.0,69.0,66.0,94,78,67,30.15,30.09,12,3,16,0.00
2013-11-12,83.6,75.7,69.0,71.0,68.2,66.0,96,79,58,30.12,30.00,8,2,11,0.00
2013-11-13,73.4,71.1,68.4,68.0,63.1,54.0,93,76,60,30.26,30.03,21,8,27,0.12
2013-11-14,76.3,72.2,68.5,62.0,58.8,55.0,73,63,57,30.28,30.18,18,7,23,0.00
2013-11-15,80.1,76.0,72.4,69.0,66.5,62.0,77,73,68,30.19,30.07,14,6,21,0.00
2013-11-16,80.5,76.0,70.6,73.0,70.6,67.0,96,83,71,30.13,30.05,10,3,15,0.41
2013-11-17,83.2,78.1,74.0,74.0,71.9,70.0,92,81,69,30.11,30.04,9,3,21,0.06
2013-11-18,83.7,76.2,70.1,74.0,72.2,69.0,98,88,71,30.06,29.95,6,1,9,0.03
2013-11-19,82.5,74.7,71.3,74.0,72.0,70.0,97,91,71,29.98,29.89,6,1,10,0.40
2013-11-20,83.6,75.2,68.3,75.0,71.7,68.0,99,89,73,30.09,29.96,7,1,10,0.01
2013-11-21,80.2,75.4,72.0,74.3,72.4,71.0,97,91,82,30.18,30.08,13,3,20,0.10
2013-11-22,81.8,77.4,75.3,72.0,70.4,69.0,85,79,70,30.20,30.11,15,5,21,0.10
2013-11-23,82.1,76.5,69.0,72.0,70.3,68.0,95,81,69,30.12,30.01,9,2,14,0.00
2013-11-24,78.4,72.1,67.9,70.0,67.7,65.0,97,86,70,30.19,30.02,18,6,24,0.02
2013-11-25,75.0,72.4,70.1,69.0,64.7,60.0,86,77,67,30.24,30.09,17,8,25,0.04
2013-11-26,82.3,77.2,72.1,75.0,72.9,69.0,93,86,76,30.09,29.86,15,6,23,0.08
2013-11-27,76.9,69.4,56.6,75.0,63.4,-99.9,98,83,66,30.16,29.82,15,-6,21,0.24
2013-11-28,72.6,61.4,46.3,60.0,52.9,44.0,92,75,53,30.29,30.16,16,5,18,0.00
2013-11-29,76.5,69.0,57.8,63.0,59.7,56.0,94,74,56,30.30,30.22,17,4,21,0.00
2013-11-30,76.9,68.8,60.8,70.0,63.2,59.0,97,83,65,30.26,30.14,13,4,23,0.46
2013-12-1,73.4,67.3,62.7,71.0,66.3,61.0,99,96,90,30.14,29.98,8,2,12,1.28
2013-12-2,70.1,66.4,60.8,68.0,64.4,60.0,99,94,80,29.98,29.86,8,2,10,0.10
2013-12-3,79.3,69.4,59.9,67.0,63.9,59.0,99,84,59,30.03,29.93,7,1,9,0.01
2013-12-4,81.5,72.0,64.1,70.0,66.7,64.0,99,84,66,30.13,30.02,8,1,12,0.00
2013-12-5,82.5,73.6,64.9,72.0,68.6,64.0,99,85,68,30.20,30.12,10,2,16,0.00
2013-12-6,82.5,76.2,67.4,71.0,69.5,66.0,95,80,65,30.22,30.13,12,4,18,0.00
2013-12-7,83.2,72.3,67.1,73.0,69.2,66.0,98,90,65,30.26,30.18,11,2,19,0.02
2013-12-8,82.8,77.0,73.1,73.0,70.2,68.0,90,80,63,30.25,30.16,10,3,16,0.03
2013-12-9,83.8,77.0,68.9,71.0,69.0,65.0,94,77,53,30.23,30.14,13,4,18,0.00
2013-12-10,84.7,75.8,68.8,74.0,70.8,67.0,97,85,65,30.20,30.11,9,1,13,0.00
2013-12-11,84.0,75.0,69.1,74.0,70.0,68.0,99,86,61,30.24,30.16,11,1,13,0.01
2013-12-12,74.8,70.6,67.0,70.0,66.1,60.0,99,86,67,30.26,30.17,14,5,23,0.01
2013-12-13,77.0,72.6,68.9,68.0,63.0,58.0,83,72,66,30.24,30.14,13,6,22,0.00
2013-12-14,81.4,76.6,72.6,73.0,71.1,68.0,92,83,72,30.15,30.02,14,5,21,0.03
2013-12-15,80.4,74.8,70.3,75.0,71.7,67.0,97,90,81,30.10,29.96,10,3,18,0.00
2013-12-16,72.2,66.2,59.7,67.0,61.1,58.0,93,84,70,30.20,30.08,9,4,14,0.00
2013-12-17,76.6,66.0,57.3,64.0,59.3,56.0,96,80,58,30.22,30.14,9,2,14,0.00
2013-12-18,73.3,64.6,58.3,60.0,58.1,55.0,96,80,59,30.28,30.18,11,3,15,0.01
2013-12-19,76.9,68.1,56.8,65.0,60.1,55.0,96,77,58,30.28,30.20,11,2,15,0.00
2013-12-20,80.5,75.0,68.9,70.0,67.3,62.0,83,77,68,30.23,30.14,12,3,18,0.00
2013-12-21,82.0,77.7,74.8,73.0,71.6,69.0,87,81,71,30.19,30.10,13,4,21,0.00
2013-12-22,83.3,78.5,76.0,73.0,72.4,71.0,89,82,68,30.20,30.11,16,6,21,0.00
2013-12-23,84.1,77.8,71.5,74.0,72.4,70.0,94,83,70,30.21,30.14,13,5,18,0.00
2013-12-24,80.1,70.5,66.8,73.0,67.1,61.0,99,89,75,30.21,30.13,12,4,23,0.12
2013-12-25,74.7,71.6,68.9,67.0,65.6,63.0,92,81,73,30.21,30.14,14,6,19,0.05
2013-12-26,77.8,74.4,71.4,70.0,69.1,66.0,87,83,76,30.20,30.10,9,3,14,0.05
2013-12-27,80.6,75.1,68.7,71.0,69.3,67.0,96,82,72,30.23,30.13,10,4,16,0.01
2013-12-28,79.0,76.2,73.7,72.0,70.5,67.0,92,82,78,30.22,30.07,17,6,21,0.04
2013-12-29,81.4,76.7,73.0,75.0,73.2,72.0,97,89,77,30.07,29.96,11,4,19,0.05
2013-12-30,76.0,71.2,67.5,72.0,68.9,65.0,98,92,81,30.18,30.01,6,2,13,0.01
2013-12-31,78.0,71.6,66.3,67.0,64.4,63.0,90,78,65,30.26,30.14,14,5,19,0.01
2014-1-1,80.5,75.8,72.7,73.0,70.3,65.0,93,83,75,30.23,30.08,12,5,21,0.00
2014-1-2,83.8,76.0,68.8,72.0,69.3,67.0,97,81,58,30.07,29.90,16,4,20,0.00